Location: Syke, Rochdale
(53.6121°N, 2.1588°W)
Time: 06:58:12
(UTC+01:00)

Amateur Radio Satellites - All Passes

Search period start: 11 December 2017 06:28
Search period end: 12 December 2017 06:28
Location: Syke, Rochdale, 53.6121°N, 2.1588°W

Satellite Date Start Highest point End Downlink Frequencies (MHz)
Time Altitude Azimuth
HO-68 11 Dec 06:29:00 06:32:29 14° 80° (E) 06:35:56 435.675
PCSat 11 Dec 06:32:15 06:36:37 25° 249° (WSW) 06:40:57 145.827
XW-2F 11 Dec 06:35:12 06:38:15 22° 92° (E) 06:41:18 145.980 - 146.000
XW-2C 11 Dec 06:45:59 06:49:25 30° 95° (E) 06:52:50 145.795 - 145.815
BEESAT 3 11 Dec 06:47:32 06:51:17 42° 235° (SW) 06:54:59 437.485
M-CUBED/EXP-1 PRIME 11 Dec 06:52:59 06:56:12 19° 313° (NW) 06:59:22 437.505
AO-7 11 Dec 06:55:18 07:02:53 40° 310° (NW) 07:10:28 .
KKS-1 11 Dec 06:58:15 07:00:48 15° 273° (W) 07:03:22 437.445
CUTE 1.7 + AOD 2 11 Dec 07:16:11 07:19:24 20° 90° (E) 07:22:34 437.475
BEESAT 2 11 Dec 07:16:31 07:20:33 66° 231° (SW) 07:24:31 435.950
LilacSat-2 11 Dec 07:16:33 07:20:26 64° 102° (ESE) 07:24:18 437.200
CUTE-I 11 Dec 07:19:29 07:24:42 49° 100° (E) 07:29:50 437.470
CUBEBUG 2 11 Dec 07:19:36 07:21:44 14° 87° (E) 07:23:52 437.445
FO-29 11 Dec 07:27:21 07:34:38 45° 60° (ENE) 07:41:58 435.910
UWE-3 11 Dec 07:29:54 07:30:24 10° 84° (E) 07:30:54 435.000/436.395/437.385
STRAND 1 11 Dec 07:36:58 07:42:07 83° 254° (WSW) 07:47:17 437.568
XW-2D 11 Dec 07:36:59 07:40:52 82° 285° (WNW) 07:44:43 145.860 - 145.880
DOVE 4 11 Dec 07:42:03 07:45:56 25° 301° (WNW) 07:49:37 437.250
YUBILEINY 11 Dec 07:42:21 07:48:31 20° 316° (NW) 07:54:43 435.215
XW-2B 11 Dec 07:52:45 07:56:34 59° 289° (WNW) 08:00:22 145.730 - 145.750
KAITUO 1B 11 Dec 07:56:40 08:00:29 71° 288° (WNW) 08:04:16 145.475/437.950
AO-85 11 Dec 07:59:08 08:03:46 82° 228° (SW) 08:08:47 145.980
NUDT-PHONESAT 11 Dec 08:00:48 08:04:33 67° 287° (WNW) 08:08:16 437.300
TIGRISAT 11 Dec 08:02:20 08:03:16 11° 50° (NE) 08:04:11 435.000
ZACube-1 11 Dec 08:03:33 08:05:29 13° 86° (E) 08:07:25 437.345
UNISAT 6 11 Dec 08:03:42 08:05:15 12° 51° (NE) 08:06:48 437.425
XW-2F 11 Dec 08:08:53 08:12:32 43° 291° (WNW) 08:16:11 145.980 - 146.000
XW-2A 11 Dec 08:10:11 08:12:28 17° 91° (E) 08:14:44 145.665 - 145.685
HO-68 11 Dec 08:14:43 08:21:50 59° 102° (ESE) 08:28:53 435.675
XW-2C 11 Dec 08:20:08 08:23:36 32° 294° (WNW) 08:27:04 145.795 - 145.815
Oscar 11 11 Dec 08:30:32 08:32:56 14° 86° (E) 08:35:18 .
SEEDS 11 Dec 08:36:48 08:41:04 69° 102° (ESE) 08:45:18 437.485
AO-73 11 Dec 08:39:06 08:42:35 23° 92° (E) 08:46:06 145.935
AO-7 11 Dec 08:48:35 08:53:32 18° 336° (NNW) 08:58:30 .
CUTE 1.7 + AOD 2 11 Dec 08:51:20 08:55:35 59° 289° (WNW) 08:59:49 437.475
LilacSat-2 11 Dec 08:51:40 08:54:18 18° 301° (WNW) 08:56:56 437.200
CUBEBUG 2 11 Dec 08:54:44 08:58:57 85° 285° (WNW) 09:03:13 437.445
BEESAT 2 11 Dec 08:56:24 08:57:29 11° 250° (WSW) 08:58:33 435.950
CUTE-I 11 Dec 08:59:48 09:04:37 35° 300° (WNW) 09:09:22 437.470
UWE-3 11 Dec 09:03:24 09:07:38 72° 102° (ESE) 09:11:57 435.000/436.395/437.385
AAUSAT CUBESAT 2 11 Dec 09:08:57 09:13:10 68° 103° (ESE) 09:17:18 437.432
FO-29 11 Dec 09:11:51 09:19:29 59° 261° (W) 09:27:16 435.910
XW-2D 11 Dec 09:12:44 09:14:24 12° 305° (NW) 09:16:04 145.860 - 145.880
STRAND 1 11 Dec 09:19:10 09:22:06 15° 274° (W) 09:25:04 437.568
NO-84 11 Dec 09:25:52 09:28:25 22° 139° (SE) 09:31:08 435.350 FM
KAITUO 1B 11 Dec 09:32:44 09:33:45 11° 306° (NW) 09:34:46 145.475/437.950
TIGRISAT 11 Dec 09:34:53 09:39:06 57° 70° (ENE) 09:43:17 435.000
UNISAT 6 11 Dec 09:36:55 09:41:11 64° 71° (ENE) 09:45:26 437.425
NUDT-PHONESAT 11 Dec 09:37:12 09:37:39 10° 307° (NW) 09:38:07 437.300
ZACube-1 11 Dec 09:38:07 09:42:24 87° 103° (ESE) 09:46:47 437.345
O/OREOS (USA 219) 11 Dec 09:38:30 09:41:57 21° 103° (ESE) 09:45:25 437.305
AO-85 11 Dec 09:40:31 09:43:39 18° 246° (WSW) 09:46:57 145.980
XW-2A 11 Dec 09:42:05 09:45:24 47° 290° (WNW) 09:48:42 145.665 - 145.685
PRISM 11 Dec 09:58:46 10:02:38 39° 66° (ENE) 10:06:32 437.425
HO-68 11 Dec 10:02:47 10:09:22 41° 304° (NW) 10:15:56 435.675
Oscar 11 11 Dec 10:05:18 10:09:41 85° 287° (WNW) 10:14:03 .
AIST 2D 11 Dec 10:10:43 10:13:06 17° 61° (ENE) 10:15:29 435.315
SEEDS 11 Dec 10:13:18 10:16:19 19° 302° (WNW) 10:19:20 437.485
AO-73 11 Dec 10:14:55 10:19:03 50° 291° (WNW) 10:23:16 145.935
Max Valier Satellite 11 Dec 10:19:29 10:22:33 23° 93° (E) 10:25:36 145.860
QB50P2 11 Dec 10:20:27 10:22:34 14° 53° (NE) 10:24:40 145.880/145.840
CUTE 1.7 + AOD 2 11 Dec 10:29:20 10:30:34 11° 309° (NW) 10:31:48 437.475
CUBEBUG 2 11 Dec 10:32:44 10:34:59 14° 305° (NW) 10:37:13 437.445
DUCHIFAT 1 11 Dec 10:32:47 10:34:40 13° 53° (NE) 10:36:32 145.980
AO-7 11 Dec 10:39:54 10:43:07 13° 3° (N) 10:46:19 .
UWE-3 11 Dec 10:40:46 10:43:40 18° 302° (WNW) 10:46:36 435.000/436.395/437.385
AAUSAT CUBESAT 2 11 Dec 10:45:13 10:48:10 19° 302° (WNW) 10:51:07 437.432
DELFI C3 11 Dec 10:50:29 10:54:28 67° 102° (ESE) 10:58:23 145.870
NANOSAT C BR1 11 Dec 10:55:11 10:58:20 21° 59° (ENE) 11:01:29 145.865
EO-88 11 Dec 10:57:14 11:00:44 40° 98° (E) 11:04:12 145.990 - 145.960
FO-29 11 Dec 11:01:46 11:06:09 16° 283° (WNW) 11:10:35 435.910
NO-84 11 Dec 11:01:55 11:05:15 80° 160° (SSE) 11:08:54 435.350 FM
EO-79 11 Dec 11:07:03 11:10:39 28° 63° (ENE) 11:14:16 145.935-145.965
TIGRISAT 11 Dec 11:12:56 11:16:09 20° 269° (W) 11:19:22 435.000
UNISAT 6 11 Dec 11:15:20 11:18:20 18° 270° (W) 11:21:19 437.425
ZACube-1 11 Dec 11:15:32 11:18:09 16° 304° (NW) 11:20:48 437.345
O/OREOS (USA 219) 11 Dec 11:16:23 11:20:57 65° 303° (WNW) 11:25:32 437.305
POLYITAN 1 11 Dec 11:28:25 11:32:23 42° 67° (ENE) 11:36:21 437.675
BUGSAT 1 11 Dec 11:30:04 11:31:48 13° 53° (NE) 11:33:32 437.445
PRISM 11 Dec 11:34:22 11:38:00 28° 265° (W) 11:41:39 437.425
ESTCUBE 1 11 Dec 11:34:32 11:37:27 17° 88° (E) 11:40:21 437.505/2401.250
LO-87 11 Dec 11:41:44 11:44:22 19° 92° (E) 11:46:59 145.935 - 145.965
AIST 2D 11 Dec 11:42:30 11:45:56 53° 260° (W) 11:49:25 435.315
Oscar 11 11 Dec 11:42:40 11:45:11 15° 306° (NW) 11:47:43 .
YUBILEINY 11 Dec 11:50:17 11:53:01 11° 26° (NNE) 11:55:44 435.215
Oscar 19 11 Dec 11:50:49 11:54:11 18° 51° (NE) 11:57:33 437.125/150
HO-68 11 Dec 11:51:44 11:55:20 15° 328° (NNW) 11:58:56 435.675
Max Valier Satellite 11 Dec 11:53:00 11:56:29 38° 292° (WNW) 11:59:57 145.860
QB50P2 11 Dec 11:53:28 11:57:40 79° 73° (ENE) 12:01:54 145.880/145.840
Gurwin Techsat 1B 11 Dec 11:59:43 12:03:04 17° 49° (NE) 12:06:25 435.225
DUCHIFAT 1 11 Dec 12:05:28 12:09:37 74° 73° (ENE) 12:13:48 145.980
DELFI C3 11 Dec 12:26:06 12:28:46 18° 302° (WNW) 12:31:26 145.870
AO-7 11 Dec 12:27:13 12:32:50 21° 30° (NNE) 12:38:28 .
NANOSAT C BR1 11 Dec 12:29:34 12:33:42 59° 258° (WSW) 12:37:52 145.865
EO-88 11 Dec 12:31:14 12:34:11 23° 297° (WNW) 12:37:08 145.990 - 145.960
AO-91 11 Dec 12:32:01 12:36:05 27° 63° (ENE) 12:39:50 145.960
NO-84 11 Dec 12:39:07 12:42:38 69° 2° (N) 12:46:26 435.350 FM
EO-79 11 Dec 12:42:20 12:46:18 40° 262° (W) 12:50:17 145.935-145.965
O/OREOS (USA 219) 11 Dec 12:58:15 13:01:16 17° 326° (NW) 13:04:17 437.305
SPROUT 11 Dec 13:02:05 13:05:46 28° 94° (E) 13:09:25 437.525
BUGSAT 1 11 Dec 13:02:26 13:06:30 76° 71° (ENE) 13:10:32 437.445
M-CUBED/EXP-1 PRIME 11 Dec 13:03:29 13:05:23 13° 41° (NE) 13:07:18 437.505
POLYITAN 1 11 Dec 13:04:47 13:08:19 26° 266° (W) 13:11:53 437.675
ESTCUBE 1 11 Dec 13:10:15 13:14:50 79° 286° (WNW) 13:19:22 437.505/2401.250
LO-87 11 Dec 13:14:36 13:17:57 42° 291° (WNW) 13:21:18 145.935 - 145.965
VELOX 1 11 Dec 13:25:41 13:29:36 30° 95° (E) 13:33:29 145.980
Oscar 19 11 Dec 13:27:37 13:32:46 79° 72° (ENE) 13:37:57 437.125/150
QB50P2 11 Dec 13:31:37 13:34:01 15° 273° (W) 13:36:25 145.880/145.840
Gurwin Techsat 1B 11 Dec 13:36:53 13:42:11 72° 70° (ENE) 13:47:31 435.225
DUCHIFAT 1 11 Dec 13:43:17 13:45:48 15° 272° (W) 13:48:18 145.980
YUBILEINY 11 Dec 13:45:57 13:53:41 32° 56° (ENE) 14:01:20 435.215
AO-91 11 Dec 14:07:31 14:12:21 53° 260° (W) 14:16:46 145.960
50 SAT 11 Dec 14:11:38 14:13:50 17° 93° (E) 14:15:59 437.505
AO-7 11 Dec 14:15:57 14:23:51 51° 55° (NE) 14:31:48 .
NO-84 11 Dec 14:16:19 14:19:59 71° 203° (SSW) 14:23:57 435.350 FM
UKube-1 11 Dec 14:27:37 14:30:49 20° 91° (E) 14:33:59 .
RS-15 11 Dec 14:29:51 14:37:35 20° 95° (E) 14:45:15 29.354- 29.394
nSIGHT-1 11 Dec 14:30:35 14:33:01 20° 149° (SSE) 14:35:28 .
ITAMSAT 1 11 Dec 14:31:57 14:36:18 28° 57° (ENE) 14:40:40 435.822/435.867
DX 1 11 Dec 14:34:13 14:38:12 33° 96° (E) 14:42:07 434.975-435.025
M-CUBED/EXP-1 PRIME 11 Dec 14:34:32 14:38:46 50° 61° (ENE) 14:43:14 437.505
SPROUT 11 Dec 14:37:47 14:41:47 41° 293° (WNW) 14:45:45 437.525
BUGSAT 1 11 Dec 14:40:06 14:42:21 14° 272° (W) 14:44:36 437.445
ESTCUBE 1 11 Dec 14:48:19 14:50:56 15° 307° (NW) 14:53:32 437.505/2401.250
ISS 11 Dec 14:57:33 15:00:17 24° 151° (SSE) 15:03:01 437.550
VELOX 1 11 Dec 15:01:59 15:06:10 41° 295° (WNW) 15:10:18 145.980
Oscar 19 11 Dec 15:09:03 15:12:43 19° 272° (W) 15:16:25 437.125/150
Gurwin Techsat 1B 11 Dec 15:18:35 15:22:41 22° 270° (W) 15:26:49 435.225
HO-68 11 Dec 15:23:49 15:24:34 10° 21° (NNE) 15:25:19 435.675
DOVE 4 11 Dec 15:38:28 15:42:31 23° 57° (ENE) 15:46:29 437.250
YUBILEINY 11 Dec 15:42:44 15:51:38 83° 262° (W) 16:00:26 435.215
50 SAT 11 Dec 15:42:58 15:45:58 38° 291° (WNW) 15:48:56 437.505
NO-84 11 Dec 15:53:52 15:56:55 22° 220° (SW) 16:00:06 435.350 FM
CUBESAT XI-V 11 Dec 15:59:44 16:01:45 13° 84° (E) 16:03:46 437.345
UKube-1 11 Dec 16:02:56 16:07:12 61° 291° (WNW) 16:11:27 .
nSIGHT-1 11 Dec 16:05:38 16:08:47 51° 167° (SSE) 16:11:56 .
AO-7 11 Dec 16:08:33 16:16:39 54° 258° (WSW) 16:24:50 .
BEESAT 11 Dec 16:08:39 16:12:57 32° 95° (E) 16:17:12 436.000
M-CUBED/EXP-1 PRIME 11 Dec 16:09:40 16:13:21 27° 261° (W) 16:17:15 437.505
ITAMSAT 1 11 Dec 16:10:16 16:15:27 62° 257° (WSW) 16:20:39 435.822/435.867
DX 1 11 Dec 16:10:23 16:14:25 36° 296° (WNW) 16:18:24 434.975-435.025
MOZHAYETS 4 11 Dec 16:22:20 16:26:54 58° 101° (E) 16:31:27
LilacSat-2 11 Dec 16:32:46 16:34:16 12° 54° (NE) 16:35:48 437.200
ISS 11 Dec 16:33:09 16:36:23 56° 171° (S) 16:39:38 437.550
ITUPSAT 1 11 Dec 16:34:05 16:38:44 50° 100° (E) 16:43:24 437.325
RS-15 11 Dec 16:35:30 16:47:29 62° 120° (ESE) 16:59:19 29.354- 29.394
XW-2D 11 Dec 16:51:26 16:53:52 16° 58° (ENE) 16:56:18 145.860 - 145.880
HO-68 11 Dec 17:04:18 17:09:56 26° 46° (NE) 17:15:35 435.675
KKS-1 11 Dec 17:06:10 17:06:59 10° 84° (E) 17:07:48 437.445
XW-2B 11 Dec 17:06:35 17:09:28 21° 61° (ENE) 17:12:24 145.730 - 145.750
SO-50 11 Dec 17:07:05 17:10:32 22° 117° (ESE) 17:14:02 436.795
CUTE-I 11 Dec 17:08:53 17:13:28 30° 58° (ENE) 17:18:04 437.470
KAITUO 1B 11 Dec 17:09:42 17:12:15 18° 59° (ENE) 17:14:50 145.475/437.950
NUDT-PHONESAT 11 Dec 17:13:00 17:15:32 18° 60° (ENE) 17:18:05 437.300
DOVE 4 11 Dec 17:14:26 17:19:43 77° 256° (WSW) 17:24:53 437.250
XW-2F 11 Dec 17:21:45 17:24:58 27° 64° (ENE) 17:28:13 145.980 - 146.000
XW-2C 11 Dec 17:32:57 17:36:27 36° 67° (ENE) 17:39:59 145.795 - 145.815
CUBESAT XI-V 11 Dec 17:35:11 17:39:57 76° 103° (ESE) 17:44:40 437.345
YUBILEINY 11 Dec 17:40:38 17:47:09 24° 286° (WNW) 17:53:40 435.215
UKube-1 11 Dec 17:40:53 17:42:23 12° 311° (NW) 17:43:54 .
nSIGHT-1 11 Dec 17:41:38 17:44:49 57° 188° (S) 17:47:59 .
BEESAT 11 Dec 17:46:20 17:50:51 43° 295° (WNW) 17:55:20 436.000
ITAMSAT 1 11 Dec 17:54:26 17:55:59 11° 278° (W) 17:57:34 435.822/435.867
STARS 11 Dec 17:58:54 18:01:18 14° 87° (E) 18:03:43 437.465
MOZHAYETS 4 11 Dec 18:00:02 18:03:45 24° 301° (WNW) 18:07:28
SEEDS 11 Dec 18:00:26 18:03:11 17° 57° (ENE) 18:05:58 437.485
O/OREOS (USA 219) 11 Dec 18:01:50 18:05:37 25° 42° (NE) 18:09:22 437.305
LilacSat-2 11 Dec 18:04:04 18:07:53 79° 74° (ENE) 18:11:45 437.200
AO-7 11 Dec 18:07:49 18:11:30 13° 281° (W) 18:15:14 .
ISS 11 Dec 18:09:29 18:12:43 53° 190° (S) 18:15:56 437.550
ITUPSAT 1 11 Dec 18:12:18 18:16:23 29° 300° (WNW) 18:20:28 437.325
CUTE 1.7 + AOD 2 11 Dec 18:14:32 18:18:18 31° 64° (ENE) 18:22:05 437.475
CUBEBUG 2 11 Dec 18:23:16 18:26:42 25° 62° (ENE) 18:30:06 437.445
XW-2D 11 Dec 18:23:49 18:27:36 68° 258° (WSW) 18:31:25 145.860 - 145.880
AAUSAT CUBESAT 2 11 Dec 18:31:18 18:33:54 16° 56° (ENE) 18:36:31 437.432
UWE-3 11 Dec 18:31:37 18:34:32 19° 58° (ENE) 18:37:27 435.000/436.395/437.385
XW-2B 11 Dec 18:39:42 18:43:23 48° 261° (W) 18:47:06 145.730 - 145.750
KKS-1 11 Dec 18:39:57 18:44:24 70° 104° (ESE) 18:48:49 437.445
KAITUO 1B 11 Dec 18:42:09 18:45:51 60° 259° (W) 18:49:37 145.475/437.950
NUDT-PHONESAT 11 Dec 18:45:23 18:49:01 57° 259° (W) 18:52:42 437.300
SO-50 11 Dec 18:46:03 18:50:33 76° 317° (NW) 18:55:08 436.795
XW-2A 11 Dec 18:47:21 18:49:34 17° 61° (ENE) 18:51:48 145.665 - 145.685
RS-15 11 Dec 18:47:53 19:00:12 66° 328° (NNW) 19:12:12 29.354- 29.394
CUTE-I 11 Dec 18:47:56 18:53:14 60° 258° (WSW) 18:58:35 437.470
HO-68 11 Dec 18:49:35 18:56:47 81° 68° (ENE) 19:04:01 435.675
DOVE 4 11 Dec 18:55:19 18:58:12 15° 276° (W) 19:01:02 437.250
XW-2F 11 Dec 18:55:30 18:58:59 35° 263° (W) 19:02:31 145.980 - 146.000
ZACube-1 11 Dec 19:04:58 19:08:08 22° 60° (ENE) 19:11:19 437.345
XW-2C 11 Dec 19:07:30 19:10:42 26° 266° (W) 19:13:58 145.795 - 145.815
CUBESAT XI-V 11 Dec 19:13:22 19:16:50 21° 304° (WNW) 19:20:16 437.345
nSIGHT-1 11 Dec 19:17:56 19:20:41 26° 207° (SSW) 19:23:25 .
Oscar 11 11 Dec 19:30:55 19:34:25 25° 61° (ENE) 19:37:56 .
STARS 11 Dec 19:33:52 19:38:16 85° 287° (WNW) 19:42:38 437.465
SEEDS 11 Dec 19:34:07 19:38:21 79° 256° (WSW) 19:42:39 437.485
PCSat 11 Dec 19:38:17 19:41:39 17° 106° (ESE) 19:45:02 145.827
AO-73 11 Dec 19:40:29 19:44:18 37° 66° (ENE) 19:48:09 145.935
O/OREOS (USA 219) 11 Dec 19:40:57 19:45:28 67° 244° (WSW) 19:49:55 437.305
LilacSat-2 11 Dec 19:40:57 19:42:42 13° 273° (W) 19:44:27 437.200
STRAND 1 11 Dec 19:41:28 19:45:21 21° 90° (E) 19:49:13 437.568
ISS 11 Dec 19:46:09 19:48:46 22° 210° (SSW) 19:51:23 437.550
CUTE 1.7 + AOD 2 11 Dec 19:50:05 19:54:04 37° 264° (W) 19:58:05 437.475
CUBEBUG 2 11 Dec 19:59:03 20:03:08 47° 261° (W) 20:07:11 437.445
AAUSAT CUBESAT 2 11 Dec 20:04:38 20:08:48 83° 253° (WSW) 20:13:02 437.432
UWE-3 11 Dec 20:06:28 20:10:36 66° 257° (WSW) 20:14:45 435.000/436.395/437.385
DELFI C3 11 Dec 20:08:55 20:11:04 14° 56° (NE) 20:13:13 145.870
FO-29 11 Dec 20:15:57 20:21:19 21° 82° (E) 20:26:15 435.910
KKS-1 11 Dec 20:17:16 20:20:32 20° 303° (WNW) 20:23:47 437.445
XW-2A 11 Dec 20:18:42 20:21:57 49° 260° (W) 20:25:15 145.665 - 145.685
SO-50 11 Dec 20:27:48 20:31:41 27° 340° (NNW) 20:35:37 436.795
CUTE-I 11 Dec 20:33:01 20:34:27 11° 279° (W) 20:35:53 437.470
HO-68 11 Dec 20:39:23 20:45:18 27° 270° (W) 20:51:17 435.675
ZACube-1 11 Dec 20:40:03 20:44:07 55° 259° (W) 20:48:13 437.345
RS-15 11 Dec 21:03:13 21:15:03 49° 360° (N) 21:26:24 29.354- 29.394
Max Valier Satellite 11 Dec 21:04:06 21:07:14 27° 64° (ENE) 21:10:23 145.860
Oscar 11 11 Dec 21:06:05 21:10:18 51° 260° (W) 21:14:33 .
STARS 11 Dec 21:11:25 21:13:59 15° 307° (NW) 21:16:32 437.465
SEEDS 11 Dec 21:13:26 21:14:47 11° 276° (W) 21:16:08 437.485
AO-73 11 Dec 21:17:03 21:20:38 28° 266° (W) 21:24:17 145.935
PCSat 11 Dec 21:18:48 21:24:13 78° 127° (SE) 21:29:41 145.827
STRAND 1 11 Dec 21:19:58 21:25:04 71° 290° (WNW) 21:30:08 437.568
O/OREOS (USA 219) 11 Dec 21:23:11 21:23:57 10° 264° (W) 21:24:44 437.305
EO-88 11 Dec 21:40:24 21:43:54 45° 69° (ENE) 21:47:25 145.990 - 145.960
DELFI C3 11 Dec 21:41:13 21:45:13 90° 61° (ENE) 21:49:15 145.870
AAUSAT CUBESAT 2 11 Dec 21:43:28 21:44:58 12° 275° (W) 21:46:29 437.432
FO-29 11 Dec 22:00:07 22:07:35 85° 105° (ESE) 22:14:10 435.910
SO-50 11 Dec 22:09:57 22:13:28 21° 5° (N) 22:17:02 436.795
BEESAT 3 11 Dec 22:19:08 22:22:49 37° 124° (SE) 22:26:32 437.485
LO-87 11 Dec 22:23:31 22:26:19 22° 63° (ENE) 22:29:06 145.935 - 145.965
Max Valier Satellite 11 Dec 22:37:39 22:40:59 32° 264° (W) 22:44:20 145.860
ESTCUBE 1 11 Dec 22:39:36 22:43:36 32° 63° (ENE) 22:47:38 437.505/2401.250
BEESAT 2 11 Dec 22:50:36 22:53:58 25° 119° (ESE) 22:57:20 435.950
VELOX 1 11 Dec 22:55:48 22:57:19 12° 49° (NE) 22:58:51 145.980
TIGRISAT 11 Dec 22:56:02 23:00:15 52° 100° (E) 23:04:30 435.000
UNISAT 6 11 Dec 22:58:17 23:02:33 59° 101° (ESE) 23:06:51 437.425
STRAND 1 11 Dec 23:00:24 23:03:27 16° 310° (NW) 23:06:29 437.568
PCSat 11 Dec 23:03:13 23:08:08 33° 329° (NNW) 23:13:05 145.827
PRISM 11 Dec 23:08:41 23:12:09 25° 94° (E) 23:15:34 437.425
EO-88 11 Dec 23:15:04 23:17:46 19° 269° (W) 23:20:29 145.990 - 145.960
RS-15 11 Dec 23:17:43 23:29:50 67° 32° (NNE) 23:41:16 29.354- 29.394
DELFI C3 11 Dec 23:19:00 23:20:35 12° 274° (W) 23:22:09 145.870
FO-29 11 Dec 23:45:40 23:51:51 30° 309° (NW) 23:57:30 435.910
SO-50 11 Dec 23:50:50 23:55:06 36° 29° (NNE) 23:59:26 436.795
LO-87 11 Dec 23:56:12 23:59:32 38° 262° (W) 00:02:54 145.935 - 145.965
BEESAT 3 11 Dec 23:56:29 00:00:20 43° 324° (NW) 00:04:11 437.485
AO-85 11 Dec 23:59:54 00:03:27 33° 121° (ESE) 00:07:14 145.980
SPROUT 12 Dec 00:00:59 00:05:03 47° 68° (ENE) 00:09:09 437.525
DX 1 12 Dec 00:02:28 00:04:20 13° 50° (NE) 00:06:13 434.975-435.025
NANOSAT C BR1 12 Dec 00:08:16 00:10:39 15° 88° (E) 00:13:01 145.865
ESTCUBE 1 12 Dec 00:16:03 00:20:19 41° 262° (W) 00:24:39 437.505/2401.250
EO-79 12 Dec 00:20:32 00:23:45 21° 91° (E) 00:26:58 145.935-145.965
BEESAT 2 12 Dec 00:27:25 00:31:25 59° 320° (NW) 00:35:28 435.950
VELOX 1 12 Dec 00:28:31 00:32:53 58° 69° (ENE) 00:37:17 145.980
TIGRISAT 12 Dec 00:33:14 00:36:42 24° 299° (WNW) 00:40:11 435.000
AIST 2D 12 Dec 00:33:44 00:37:19 76° 102° (ESE) 00:40:53 435.315
UNISAT 6 12 Dec 00:35:39 00:38:57 22° 301° (WNW) 00:42:17 437.425
POLYITAN 1 12 Dec 00:42:10 00:45:58 32° 96° (E) 00:49:45 437.675
PRISM 12 Dec 00:43:40 00:47:36 43° 293° (WNW) 00:51:29 437.425
50 SAT 12 Dec 00:43:50 00:46:00 17° 61° (ENE) 00:48:10 437.505
PCSat 12 Dec 00:49:09 00:53:08 20° 355° (N) 00:57:07 145.827
QB50P2 12 Dec 01:07:22 01:11:33 60° 101° (E) 01:15:43 145.880/145.840
DUCHIFAT 1 12 Dec 01:18:18 01:22:26 55° 101° (E) 01:26:32 145.980
UKube-1 12 Dec 01:27:34 01:31:33 38° 64° (ENE) 01:35:34 .
RS-15 12 Dec 01:30:48 01:42:20 59° 241° (WSW) 01:53:17 29.354- 29.394
SO-50 12 Dec 01:31:16 01:35:53 66° 230° (SW) 01:40:33 436.795
FO-29 12 Dec 01:32:38 01:34:32 11° 333° (NNW) 01:36:24 435.910
Oscar 19 12 Dec 01:33:29 01:36:56 17° 87° (E) 01:40:22 437.125/150
DX 1 12 Dec 01:35:23 01:39:43 65° 70° (ENE) 01:44:05 434.975-435.025
BEESAT 3 12 Dec 01:35:53 01:38:46 19° 347° (NNW) 01:41:38 437.485
SPROUT 12 Dec 01:37:41 01:41:10 24° 267° (W) 01:44:40 437.525
AO-85 12 Dec 01:39:48 01:43:43 48° 324° (NW) 01:47:57 145.980
NANOSAT C BR1 12 Dec 01:42:42 01:46:54 79° 288° (WNW) 01:51:06 145.865
BEESAT 12 Dec 01:45:52 01:48:39 16° 51° (NE) 01:51:26 436.000
Gurwin Techsat 1B 12 Dec 01:47:26 01:50:57 18° 87° (E) 01:54:27 435.225
AO-91 12 Dec 01:52:09 01:54:30 16° 89° (E) 01:56:45 145.960
MOZHAYETS 4 12 Dec 01:54:45 01:58:05 20° 57° (ENE) 02:01:26
EO-79 12 Dec 01:55:43 01:59:50 54° 291° (WNW) 02:03:56 145.935-145.965
VELOX 1 12 Dec 02:06:13 02:09:40 22° 269° (W) 02:13:09 145.980
BEESAT 2 12 Dec 02:06:43 02:09:53 21° 342° (NNW) 02:13:04 435.950
AIST 2D 12 Dec 02:08:10 02:10:00 14° 302° (WNW) 02:11:49 435.315
ITUPSAT 1 12 Dec 02:10:40 02:14:19 23° 56° (ENE) 02:18:00 437.325
BUGSAT 1 12 Dec 02:12:46 02:16:43 51° 101° (E) 02:20:39 437.445
50 SAT 12 Dec 02:14:39 02:17:42 42° 260° (W) 02:20:47 437.505
POLYITAN 1 12 Dec 02:17:56 02:21:47 35° 295° (WNW) 02:25:37 437.675
PCSat 12 Dec 02:33:51 02:38:19 25° 21° (NNE) 02:42:48 145.827
QB50P2 12 Dec 02:43:49 02:47:00 21° 301° (WNW) 02:50:10 145.880/145.840
DUCHIFAT 1 12 Dec 02:54:33 02:57:48 22° 300° (WNW) 03:01:03 145.980
YUBILEINY 12 Dec 02:57:13 03:04:02 26° 76° (ENE) 03:10:52 435.215
UKube-1 12 Dec 03:03:46 03:07:38 31° 264° (W) 03:11:32 .
CUBESAT XI-V 12 Dec 03:08:16 03:12:06 26° 60° (ENE) 03:15:59 437.345
Oscar 19 12 Dec 03:11:44 03:16:58 88° 287° (WNW) 03:22:11 437.125/150
DX 1 12 Dec 03:13:11 03:16:20 19° 270° (W) 03:19:29 434.975-435.025
SO-50 12 Dec 03:13:26 03:15:32 13° 249° (WSW) 03:17:39 436.795
BEESAT 3 12 Dec 03:14:50 03:17:37 18° 11° (N) 03:20:23 437.485
NANOSAT C BR1 12 Dec 03:19:51 03:21:57 14° 307° (NW) 03:24:03 145.865
BEESAT 12 Dec 03:20:57 03:25:42 76° 70° (ENE) 03:30:28 436.000
AO-85 12 Dec 03:21:49 03:25:06 21° 348° (NNW) 03:28:33 145.980
Gurwin Techsat 1B 12 Dec 03:26:17 03:31:39 90° 296° (WNW) 03:36:59 435.225
AO-91 12 Dec 03:27:47 03:31:24 50° 291° (WNW) 03:34:47 145.960
MOZHAYETS 4 12 Dec 03:30:15 03:34:47 72° 256° (WSW) 03:39:23
EO-79 12 Dec 03:34:21 03:34:42 10° 311° (NW) 03:35:03 145.935-145.965
M-CUBED/EXP-1 PRIME 12 Dec 03:41:59 03:44:35 15° 92° (E) 03:47:08 437.505
RS-15 12 Dec 03:45:17 03:51:55 17° 267° (W) 03:58:24 29.354- 29.394
BEESAT 2 12 Dec 03:46:09 03:48:55 17° 6° (N) 03:51:40 435.950
ITUPSAT 1 12 Dec 03:46:59 03:51:44 69° 257° (WSW) 03:56:31 437.325
BUGSAT 1 12 Dec 03:48:41 03:51:48 22° 300° (WNW) 03:54:56 437.445
AO-7 12 Dec 04:02:26 04:10:05 37° 96° (E) 04:17:42 .
KKS-1 12 Dec 04:08:37 04:12:09 23° 59° (ENE) 04:15:42 437.445
ITAMSAT 1 12 Dec 04:16:43 04:21:13 29° 94° (E) 04:25:40 435.822/435.867
PCSat 12 Dec 04:17:20 04:22:44 63° 44° (NE) 04:28:08 145.827
CUBESAT XI-V 12 Dec 04:44:37 04:49:12 56° 260° (W) 04:53:51 437.345
YUBILEINY 12 Dec 04:50:51 04:59:42 89° 98° (E) 05:08:38 435.215
Oscar 19 12 Dec 04:51:59 04:55:39 20° 307° (NW) 04:59:19 437.125/150
BEESAT 3 12 Dec 04:52:23 04:56:08 38° 34° (NNE) 04:59:50 437.485
FO-29 12 Dec 04:56:37 04:57:51 10° 25° (NNE) 04:59:05 435.910
BEESAT 12 Dec 05:00:44 05:04:01 18° 271° (W) 05:07:20 436.000
STARS 12 Dec 05:00:47 05:04:35 29° 62° (ENE) 05:08:24 437.465
AO-85 12 Dec 05:03:27 05:06:54 22° 13° (NNE) 05:10:32 145.980
Gurwin Techsat 1B 12 Dec 05:07:07 05:10:58 21° 308° (NW) 05:14:49 435.225
DOVE 4 12 Dec 05:07:55 05:11:17 19° 87° (E) 05:14:31 437.250
MOZHAYETS 4 12 Dec 05:11:24 05:12:49 11° 277° (W) 05:14:13
M-CUBED/EXP-1 PRIME 12 Dec 05:14:57 05:19:38 87° 111° (ESE) 05:24:06 437.505
BEESAT 2 12 Dec 05:24:06 05:27:45 31° 29° (NNE) 05:31:23 435.950
STRAND 1 12 Dec 05:27:39 05:30:03 13° 47° (NE) 05:32:27 437.568
ITUPSAT 1 12 Dec 05:28:56 05:30:28 11° 276° (W) 05:32:00 437.325
KKS-1 12 Dec 05:43:58 05:48:23 59° 258° (WSW) 05:52:50 437.445
AO-7 12 Dec 05:55:08 06:03:27 70° 298° (WNW) 06:11:45 .
ITAMSAT 1 12 Dec 05:55:54 06:00:59 54° 294° (WNW) 06:06:00 435.822/435.867
PCSat 12 Dec 06:01:06 06:05:53 32° 246° (WSW) 06:10:38 145.827
XW-2B 12 Dec 06:06:56 06:08:40 13° 87° (E) 06:10:23 145.730 - 145.750
HO-68 12 Dec 06:14:08 06:15:07 10° 76° (ENE) 06:16:06 435.675
XW-2F 12 Dec 06:21:22 06:23:52 16° 89° (E) 06:26:21 145.980 - 146.000
